Stations météo

réclame
Mon MeteoGroup
Garmisch-Partenkirchen, Allemagne (10963): Température de l'air & dewpoint: 13.06.2019 11:00:00 - 19.06.2019 11:00:00 (CEST)Garmisch-Partenkirchen, Allemagne (10963): Température de l'air 5cm & Température de l'air -5cm: 13.06.2019 11:00:00 - 19.06.2019 11:00:00 (CEST)Garmisch-Partenkirchen, Allemagne (10963): Température de l'air -20cm & Température de l'air -100cm: 13.06.2019 11:00:00 - 19.06.2019 11:00:00 (CEST)Garmisch-Partenkirchen, Allemagne (10963): Vitesse du vent & gusts: 13.06.2019 11:00:00 - 19.06.2019 11:00:00 (CEST)Garmisch-Partenkirchen, Allemagne (10963): Direction du vent: 13.06.2019 11:00:00 - 19.06.2019 11:00:00 (CEST)Garmisch-Partenkirchen, Allemagne (10963): reduced air pressure: 13.06.2019 11:00:00 - 19.06.2019 11:00:00 (CEST)Garmisch-Partenkirchen, Allemagne (10963): visibility: 13.06.2019 11:00:00 - 19.06.2019 11:00:00 (CEST)Garmisch-Partenkirchen, Allemagne (10963): Ensoleillement: 13.06.2019 11:00:00 - 19.06.2019 11:00:00 (CEST)Garmisch-Partenkirchen, Allemagne (10963): Quantités de précipitations: 13.06.2019 11:00:00 - 19.06.2019 11:00:00 (CEST)
Date & Time tt [°C] td [°C] tt 5cm [°C] tt -5cm [°C] tt -20cm [°C] tt -100cm [°C] ff [km/h] ff [knt] fx [km/h] fx [knt] dd ppp [hPa] vv [km] sd [min] rr [mm]
19.06.2019 11:00:00 25,1 12,3 23,4 25,6 20,5 15,5 5 3 14 8 SSE 1009,9 43 60 0,0
19.06.2019 10:00:00 22,3 15,5 21,6 22,4 20,1 15,4 6 3 13 7 SSW 1011,0 75 57 0,0
19.06.2019 09:00:00 17,0 14,9 16,6 19,3 20,1 15,4 2 1 6 3 SSW 1013,2 61 1 0,0
19.06.2019 08:00:00 15,2 14,4 14,8 18,5 20,3 15,4 2 1 8 5 NW 1014,1 30 0 0,1
19.06.2019 07:00:00 14,1 13,5 14,1 18,1 20,6 15,4 3 2 6 4 WNW 1014,6 45 0 0,0
19.06.2019 06:00:00 13,8 13,4 13,5 18,3 21,0 15,4 3 2 6 4 S 1015,1 23 0 0,0
19.06.2019 05:00:00 13,6 13,2 13,2 18,6 21,4 15,4 2 1 5 3 N 1015,2 45 0 0,1
19.06.2019 04:00:00 13,3 12,9 13,1 19,0 21,9 15,4 2 1 7 4 SSE 1015,5 16 0 0,0
19.06.2019 03:00:00 13,8 13,5 13,7 19,6 22,4 15,4 4 2 11 6 SW 1015,8 48 0 0,1
19.06.2019 02:00:00 14,0 13,6 13,7 20,3 23,0 15,4 6 4 11 6 WSW 1016,8 15 0 0,0
19.06.2019 01:00:00 14,8 14,3 14,8 21,0 23,7 15,4 3 2 16 9 NW 1017,6 45 0 2,8
19.06.2019 00:00:00 15,3 14,4 15,1 22,0 24,4 15,4 11 6 45 24 SW 1018,2 5 0 4,7
18.06.2019 23:00:00 19,7 12,3 19,2 24,2 24,9 15,4 21 11 46 25 SW 1014,8 64 0 0,0
18.06.2019 22:00:00 18,3 13,8 17,4 25,2 25,5 15,4 3 2 6 3 WSW 1013,4 70 0 0,0
18.06.2019 21:00:00 20,0 13,2 18,7 26,8 25,9 15,4 3 2 14 8 WSW 1012,5 71 0 0,0
18.06.2019 20:00:00 24,3 11,7 23,7 28,7 26,2 15,4 8 4 17 9 NNE 1011,3 75 37 0,0
18.06.2019 19:00:00 25,4 11,0 26,3 29,7 26,3 15,4 5 3 21 12 NNE 1010,7 66 5 0,0
18.06.2019 18:00:00 25,9 11,0 26,0 31,4 26,3 15,3 6 3 29 15 NNE 1010,4 75 8 0,0
18.06.2019 17:00:00 26,5 11,3 26,3 33,9 25,8 15,3 13 7 27 15 NNE 1010,2 63 31 0,0
18.06.2019 16:00:00 27,8 12,3 31,9 35,1 24,9 15,3 11 6 31 17 NNE 1010,1 75 53 0,0
18.06.2019 15:00:00 27,3 13,3 31,0 34,8 23,8 15,3 14 7 34 18 NNE 1010,6 75 60 0,0
18.06.2019 14:00:00 27,0 13,8 30,4 33,3 22,6 15,3 16 9 35 19 NE 1011,0 75 60 0,0
18.06.2019 13:00:00 26,6 14,0 30,6 31,0 21,4 15,3 14 8 30 16 NNE 1011,6 59 60 0,0
18.06.2019 12:00:00 25,2 13,2 28,4 28,5 20,3 15,3 13 7 24 13 NE 1012,4 70 60 0,0
18.06.2019 11:00:00 24,5 10,9 26,1 25,6 19,3 15,3 9 5 15 8 NE 1013,0 52 60 0,0
18.06.2019 10:00:00 23,4 12,1 24,8 22,4 18,7 15,3 4 2 9 5 SSW 1013,7 65 60 0,0
18.06.2019 09:00:00 21,1 12,1 20,5 19,2 18,5 15,3 3 2 6 3 SSE 1015,0 75 60 0,0
18.06.2019 08:00:00 18,0 13,2 14,5 16,7 18,7 15,3 3 1 6 3 SE 1016,0 68 47 0,0
18.06.2019 07:00:00 12,4 11,6 11,1 15,9 19,1 15,3 0 0 7 4 N 1017,4 35 10 0,0
18.06.2019 06:00:00 11,2 10,8 10,4 16,2 19,5 15,3 1 1 6 3 N 1017,7 31 0 0,0
18.06.2019 05:00:00 11,9 11,5 11,0 16,8 19,9 15,3 3 2 5 3 SW 1017,3 32 0 0,0
18.06.2019 04:00:00 12,7 12,3 11,4 17,6 20,4 15,3 3 1 6 3 SW 1016,9 30 0 0,0
18.06.2019 03:00:00 13,5 12,7 12,4 18,3 20,9 15,3 3 2 6 4 SW 1016,7 28 0 0,0
18.06.2019 02:00:00 14,5 13,4 13,3 19,1 21,3 15,3 3 1 6 3 WSW 1017,1 41 0 0,0
18.06.2019 01:00:00 14,8 13,6 14,1 19,9 21,8 15,3 0 0 9 5 N 1017,4 40 0 0,0
18.06.2019 00:00:00 15,3 14,0 14,7 20,8 22,3 15,3 5 3 8 4 SSW 1017,1 46 0 0,0
17.06.2019 23:00:00 17,0 14,5 16,2 21,8 22,8 15,4 6 3 9 5 SSW 1016,6 62 0 0,0
17.06.2019 22:00:00 18,1 14,6 17,2 23,0 23,3 15,4 3 2 5 3 SW 1016,3 58 0 0,0
17.06.2019 21:00:00 20,6 14,0 19,6 24,2 23,7 15,4 5 3 17 9 E 1015,0 58 0 0,0
17.06.2019 20:00:00 21,8 13,4 21,3 25,9 24,1 15,4 9 5 22 12 NE 1014,7 67 0 0,0
17.06.2019 19:00:00 22,5 13,6 22,4 28,1 24,1 15,4 11 6 31 17 NE 1014,2 75 13 0,0
17.06.2019 18:00:00 23,5 13,2 24,5 30,3 23,8 15,4 14 8 41 22 NE 1013,7 71 53 0,0
17.06.2019 17:00:00 24,4 14,0 27,2 30,9 23,2 15,4 16 9 40 21 NE 1013,4 58 60 0,0
17.06.2019 16:00:00 23,9 13,9 26,8 31,1 22,4 15,4 18 10 35 19 NE 1013,8 64 60 0,0
17.06.2019 15:00:00 23,6 14,1 27,0 30,5 21,5 15,4 18 10 39 21 NE 1014,4 75 60 0,0
17.06.2019 14:00:00 23,2 13,6 26,4 29,4 20,4 15,4 12 7 36 20 NE 1014,9 75 60 0,0
17.06.2019 13:00:00 22,2 13,0 25,3 27,8 19,3 15,4 13 7 28 15 NE 1015,7 57 60 0,0
17.06.2019 12:00:00 20,9 12,6 23,8 25,6 18,3 15,4 12 7 22 12 NE 1016,6 75 60 0,0
17.06.2019 11:00:00 20,0 11,4 22,5 23,1 17,4 15,4 7 4 13 7 ENE 1017,4 60 60 0,0
17.06.2019 10:00:00 18,6 10,3 20,9 20,2 16,7 15,4 6 3 13 7 ENE 1018,3 73 60 0,0
17.06.2019 09:00:00 17,2 11,1 17,7 17,2 16,4 15,4 4 2 8 4 SSE 1019,4 66 60 0,0
17.06.2019 08:00:00 14,6 10,8 12,6 14,6 16,5 15,4 2 1 6 3 SSW 1020,7 70 60 0,0
17.06.2019 07:00:00 11,2 10,0 10,0 13,6 16,8 15,4 3 1 5 3 WSW 1021,9 50 22 0,0
17.06.2019 06:00:00 9,4 9,1 8,7 13,8 17,1 15,4 2 1 8 4 SW 1022,6 33 0 0,0
17.06.2019 05:00:00 10,0 9,7 8,7 14,4 17,4 15,4 1 1 5 3 WNW 1022,3 43 0 0,0
17.06.2019 04:00:00 11,6 11,1 9,8 15,1 17,7 15,4 3 1 8 4 WNW 1021,7 55 0 0,0
17.06.2019 03:00:00 11,9 11,3 11,0 15,6 18,0 15,4 2 1 10 5 ESE 1021,9 51 0 0,0
17.06.2019 02:00:00 12,5 11,8 11,0 16,3 18,3 15,4 4 2 9 5 SSW 1022,1 57 0 0,0
17.06.2019 01:00:00 13,6 12,1 13,2 16,7 18,5 15,4 3 2 8 4 NW 1022,2 71 0 0,0
17.06.2019 00:00:00 13,1 12,0 12,9 17,0 18,8 15,4 5 3 9 5 SW 1022,3 53 0 0,0
16.06.2019 23:00:00 13,7 12,3 13,5 17,4 19,0 15,4 3 1 5 3 S 1022,6 38 0 0,0
16.06.2019 22:00:00 13,9 12,5 13,4 17,9 19,2 15,4 2 1 5 3 SW 1022,3 62 0 0,0
16.06.2019 21:00:00 15,1 12,8 14,8 18,6 19,4 15,4 2 1 5 3 WSW 1021,5 75 0 0,0
16.06.2019 20:00:00 15,6 13,1 15,4 18,9 19,6 15,4 2 1 6 4 WNW 1021,5 75 0 0,0
16.06.2019 19:00:00 15,7 13,2 15,5 19,4 19,7 15,3 2 1 8 5 WSW 1021,2 75 0 0,0
16.06.2019 18:00:00 17,0 11,4 16,7 20,1 19,8 15,3 4 2 9 5 NNW 1020,6 75 0 0,0
16.06.2019 17:00:00 17,0 11,8 16,9 20,3 19,8 15,3 0 0 6 3 N 1020,7 74 0 0,0
16.06.2019 16:00:00 16,8 11,5 17,1 20,3 19,8 15,3 4 2 9 5 SSE 1020,9 73 0 0,0
16.06.2019 15:00:00 16,6 11,0 17,1 20,0 19,9 15,3 4 2 15 8 NNE 1020,8 75 0 0,0
16.06.2019 14:00:00 16,6 10,9 17,0 20,7 19,8 15,3 7 4 19 11 NNE 1020,8 75 0 0,0
16.06.2019 13:00:00 17,1 12,1 17,9 21,5 19,6 15,3 6 3 23 13 ENE 1020,4 66 0 0,0
16.06.2019 12:00:00 17,2 11,5 18,9 22,0 19,2 15,3 9 5 22 12 NNE 1020,3 75 8 0,0
16.06.2019 11:00:00 16,4 11,7 17,0 20,7 18,9 15,2 6 3 12 6 NE 1020,4 75 4 0,0
16.06.2019 10:00:00 16,9 11,8 16,9 19,5 18,6 15,2 2 1 8 4 E 1020,2 59 9 0,0
16.06.2019 09:00:00 14,5 12,7 14,8 17,8 18,6 15,2 3 2 6 3 SW 1020,9 75 0 0,0
16.06.2019 08:00:00 13,5 11,9 13,6 17,2 18,7 15,2 2 1 4 2 S 1020,6 75 0 0,0
16.06.2019 07:00:00 12,5 11,9 12,4 16,4 18,9 15,2 2 1 6 3 W 1020,5 61 3 0,0
16.06.2019 06:00:00 12,0 11,7 11,9 16,5 19,2 15,2 3 1 5 3 SW 1020,7 28 0 0,0
16.06.2019 05:00:00 12,2 11,9 12,2 16,8 19,6 15,2 0 0 10 5 N 1020,2 41 0 0,0
16.06.2019 04:00:00 12,0 11,7 11,7 16,9 20,0 15,1 4 2 8 4 SSW 1020,2 54 0 0,0
16.06.2019 03:00:00 12,6 12,2 12,7 17,3 20,5 15,1 3 1 10 5 SW 1020,1 49 0 1,7
16.06.2019 02:00:00 12,5 12,2 12,7 17,4 21,3 15,1 4 2 21 12 SSE 1020,3 2,8 0 12,4
16.06.2019 01:00:00 13,1 12,2 13,0 19,3 21,9 15,1 9 5 56 30 WSW 1019,1 22 0 5,0
16.06.2019 00:00:00 17,7 15,0 17,4 21,0 22,2 15,1 6 3 14 8 ENE 1015,3 73 0 0,0
15.06.2019 23:00:00 16,4 15,3 16,4 21,4 22,6 15,1 4 2 8 4 SSW 1014,9 53 0 0,0
15.06.2019 22:00:00 17,0 15,3 17,0 22,0 22,9 15,1 4 2 9 5 SW 1014,2 63 0 0,0
15.06.2019 21:00:00 16,9 15,4 16,7 22,7 23,2 15,0 5 3 9 5 SW 1013,9 48 0 0,1
15.06.2019 20:00:00 17,9 15,8 17,9 23,7 23,5 15,0 3 2 8 4 WSW 1013,7 49 0 0,0
15.06.2019 19:00:00 19,0 16,4 19,3 24,6 23,7 15,0 3 2 11 6 WSW 1013,7 64 0 0,1
15.06.2019 18:00:00 21,2 12,8 21,4 25,1 23,9 15,0 3 2 15 8 N 1013,3 69 0 0,0
15.06.2019 17:00:00 21,2 12,3 21,2 25,8 24,1 15,0 10 5 24 13 NE 1013,6 75 0 0,0
15.06.2019 16:00:00 21,5 12,6 21,5 27,1 24,1 15,0 13 7 31 17 NE 1013,4 75 0 0,0
15.06.2019 15:00:00 22,0 12,6 22,8 28,5 23,7 15,0 16 9 41 22 NE 1013,0 61 0 0,0
15.06.2019 14:00:00 23,1 12,8 24,7 29,7 23,1 14,9 18 10 38 21 NE 1012,3 66 37 0,0
15.06.2019 13:00:00 22,9 12,9 24,6 27,8 22,6 14,9 18 10 41 22 NE 1012,5 67 20 0,0
15.06.2019 12:00:00 22,5 12,3 23,9 27,4 22,0 14,9 21 11 42 23 NE 1012,3 63 45 0,0
15.06.2019 11:00:00 23,0 12,4 24,8 26,4 21,3 14,9 18 10 39 21 NE 1011,8 57 60 0,0
15.06.2019 10:00:00 23,4 12,5 24,7 24,2 20,9 14,9 15 8 33 18 NE 1010,9 51 60 0,0
15.06.2019 09:00:00 23,8 12,2 23,6 21,4 20,7 14,9 6 3 20 11 E 1010,4 51 60 0,0
15.06.2019 08:00:00 20,3 13,5 18,1 19,3 21,0 14,9 4 2 8 4 SW 1011,0 46 60 0,0
15.06.2019 07:00:00 15,0 11,0 13,8 18,6 21,4 14,9 6 3 9 5 S 1012,6 53 22 0,0
15.06.2019 06:00:00 13,0 10,6 11,7 18,9 21,9 14,8 5 3 14 7 W 1012,6 48 0 0,0
15.06.2019 05:00:00 13,4 10,8 11,7 19,7 22,4 14,8 3 2 11 6 W 1011,8 49 0 0,0
15.06.2019 04:00:00 14,1 11,5 12,9 20,5 22,8 14,8 4 2 16 8 WSW 1011,2 43 0 0,0
15.06.2019 03:00:00 15,7 12,5 14,2 21,4 23,3 14,8 8 4 15 8 SSW 1011,2 47 0 0,0
15.06.2019 02:00:00 16,5 13,5 15,4 22,2 23,8 14,8 4 2 11 6 W 1012,0 48 0 0,0
15.06.2019 01:00:00 17,1 13,9 15,4 23,1 24,3 14,8 5 3 14 7 S 1011,5 47 0 0,0
15.06.2019 00:00:00 18,8 15,2 17,0 24,0 24,9 14,8 4 2 15 8 NW 1011,6 49 0 0,0
14.06.2019 23:00:00 19,0 15,7 16,9 25,1 25,4 14,8 7 4 14 7 WSW 1011,9 48 0 0,0
14.06.2019 22:00:00 20,3 16,5 18,2 26,5 25,9 14,8 4 2 8 4 SSW 1010,7 44 0 0,0
14.06.2019 21:00:00 22,8 16,4 21,2 28,2 26,3 14,8 4 2 22 12 NE 1009,7 54 0 0,0
14.06.2019 20:00:00 25,6 15,3 24,9 29,9 26,5 14,8 10 5 29 16 NE 1009,5 53 0 0,0
14.06.2019 19:00:00 26,9 14,2 26,5 32,0 26,4 14,8 15 8 29 15 NNE 1009,4 57 20 0,0
14.06.2019 18:00:00 28,2 13,9 29,8 33,3 26,1 14,8 16 8 33 18 NE 1009,5 43 43 0,0
14.06.2019 17:00:00 28,6 14,1 30,8 34,4 25,5 14,8 16 9 34 19 NE 1009,6 63 51 0,0
14.06.2019 16:00:00 29,8 12,3 32,1 34,9 24,5 14,7 17 9 34 19 NNE 1009,5 61 49 0,0
14.06.2019 15:00:00 32,9 3,9 36,3 35,3 23,2 14,7 5 3 13 7 SSE 1009,4 50 60 0,0
14.06.2019 14:00:00 31,9 6,2 35,8 33,3 21,8 14,7 4 2 11 6 SSW 1010,1 69 60 0,0
14.06.2019 13:00:00 30,2 5,0 33,9 30,6 20,5 14,7 5 3 11 6 S 1011,1 52 60 0,0
14.06.2019 12:00:00 28,8 7,3 30,5 27,5 19,3 14,7 4 2 14 8 SSE 1011,9 75 60 0,0
14.06.2019 11:00:00 25,8 6,2 27,8 24,2 18,4 14,7 9 5 16 9 S 1013,0 75 60 0,0
14.06.2019 10:00:00 22,2 9,0 23,6 20,4 18,0 14,7 5 3 9 5 WSW 1014,4 75 51 0,0
14.06.2019 09:00:00 20,0 11,0 18,7 18,0 17,8 14,7 2 1 7 4 N 1015,4 58 58 0,0
14.06.2019 08:00:00 15,7 10,6 14,1 15,6 18,0 14,7 3 2 10 5 SSW 1016,9 58 60 0,0
14.06.2019 07:00:00 11,6 9,7 9,8 14,7 18,4 14,7 5 3 12 6 SW 1018,2 62 23 0,0
14.06.2019 06:00:00 9,6 8,9 8,4 14,9 18,9 14,7 4 2 10 6 SSW 1019,4 58 0 0,0
14.06.2019 05:00:00 9,1 8,5 7,6 15,4 19,4 14,7 5 3 11 6 S 1019,5 30 0 0,0
14.06.2019 04:00:00 9,7 9,2 8,4 16,1 20,0 14,7 4 2 10 5 W 1019,5 34 0 0,0
14.06.2019 03:00:00 9,6 8,9 8,8 17,0 20,5 14,7 4 2 8 4 SSW 1019,3 25 0 0,0
14.06.2019 02:00:00 10,3 9,5 9,6 17,8 21,1 14,7 4 2 14 8 SW 1019,3 44 0 0,0
14.06.2019 01:00:00 11,2 10,4 10,4 18,9 21,8 14,7 5 3 8 5 SSW 1019,1 48 0 0,0
14.06.2019 00:00:00 12,0 10,9 11,3 20,0 22,4 14,7 3 2 10 5 SW 1018,4 58 0 0,0
13.06.2019 23:00:00 13,1 11,5 12,4 21,4 23,0 14,7 4 2 5 3 SW 1017,6 68 0 0,0
13.06.2019 22:00:00 15,3 11,9 13,6 23,0 23,5 14,7 2 1 5 3 WSW 1016,6 62 0 0,0
13.06.2019 21:00:00 18,9 11,5 17,4 24,9 23,9 14,7 4 2 18 10 ESE 1014,8 75 0 0,0
13.06.2019 20:00:00 20,2 10,8 20,0 26,9 24,1 14,7 9 5 24 13 NE 1013,5 73 8 0,0
13.06.2019 19:00:00 20,8 10,5 21,6 28,7 24,1 14,7 13 7 31 17 NE 1012,6 71 38 0,0
13.06.2019 18:00:00 21,5 10,6 23,9 30,2 23,8 14,7 18 10 31 17 NE 1012,1 75 41 0,0
13.06.2019 17:00:00 22,1 11,0 25,5 30,4 23,3 14,7 13 7 35 19 NNE 1011,6 63 40 0,0
13.06.2019 16:00:00 22,5 11,0 27,2 30,6 22,6 14,7 16 8 34 18 NNE 1011,3 75 43 0,0
13.06.2019 15:00:00 22,2 10,6 26,1 31,0 21,6 14,7 18 10 36 19 NE 1011,1 75 59 0,0
13.06.2019 14:00:00 21,6 10,6 24,8 29,7 20,6 14,7 18 10 40 21 NE 1011,1 50 60 0,0
13.06.2019 13:00:00 20,8 11,5 24,1 28,0 19,6 14,7 17 9 32 17 NE 1011,4 67 60 0,0
13.06.2019 12:00:00 20,3 10,9 24,0 26,0 18,6 14,7 11 6 20 11 NNE 1011,7 64 60 0,0
13.06.2019 11:00:00 18,7 8,2 21,4 23,4 17,8 14,7 9 5 19 11 NE 1012,7 65 60 0,0

tt = Température de l'air
td = dewpoint
tt 5cm = Température de l'air 5cm
tt -5cm = Température de l'air -5cm
tt -20cm = Température de l'air -20cm
tt -100cm = Température de l'air -100cm
ff = Vitesse du vent
fx = gusts
dd = Direction du vent
ppp = reduced air pressure
vv = visibility
sd = Ensoleillement
rr = Quantités de précipitations

stations d'obs. à proximité